N3OZD-10 Weather Reports


time (UTC)temp
C
wind
direction
speed
KPH
gust
KPH
rain 1hr
cm
rain 24hr
cm
rain mn
cm
humidity
%
barometer
mb
20260507070721 11 102 8.0 12.9 0.03 0.61 0.15 91 1010.2
20260507070224 11 91 1.6 14.5 0.03 0.61 0.15 91 1010.2
20260507065721 11 87 11.3 12.9 0.03 0.61 0.15 90 1010.2
20260507065221 11 101 9.7 19.3 0.03 0.61 0.15 90 1010.3
20260507064221 12 143 3.2 12.9 0.03 0.61 0.15 92 1010.1
20260507063721 12 113 6.4 12.9 0.00 0.58 0.13 92 1010.0
20260507063221 12 67 8.0 12.9 0.00 0.58 0.13 92 1010.3
20260507062721 12 88 9.7 14.5 0.00 0.58 0.13 92 1010.1
20260507062221 12 63 4.8 12.9 0.00 0.58 0.13 94 1010.1
20260507061722 12 92 4.8 11.3 0.00 0.58 0.13 94 1010.1
20260507061221 12 70 8.0 11.3 0.03 0.58 0.13 95 1010.0
20260507060722 12 74 8.0 8.0 0.05 0.58 0.13 95 1010.0
20260507060225 12 63 0.0 0.0 0.08 0.58 0.13 95 1010.6
20260507055721 12 63 0.0 1.6 0.08 0.58 0.13 95 1010.5
20260507055223 12 64 0.0 4.8 0.08 0.58 0.13 95 1010.3
20260507054721 13 56 0.0 0.0 0.08 0.58 0.13 95 1010.2
20260507054221 13 56 0.0 4.8 0.08 0.58 0.13 95 1009.9
20260507053721 12 45 0.0 0.0 0.08 0.58 0.13 95 1010.2
20260507053221 13 45 0.0 6.4 0.13 0.58 0.13 95 1010.3
20260507052721 13 56 0.0 6.4 0.13 0.58 0.13 94 1010.2
20260507052222 13 68 0.0 0.0 0.13 0.58 0.13 94 1010.4
20260507051725 13 68 0.0 1.6 0.13 0.58 0.13 94 1010.3
20260507051221 13 68 1.6 6.4 0.08 0.53 0.08 93 1010.2
20260507050721 13 111 0.0 9.7 0.08 0.53 0.08 92 1010.4
20260507050222 13 74 0.0 8.0 0.05 0.51 0.05 91 1010.4
20260507045721 13 29 0.0 9.7 0.05 0.51 0.05 90 1010.5
20260507045223 13 92 0.0 16.1 0.05 0.51 0.05 88 1010.5
20260507044723 14 57 0.0 14.5 0.05 0.51 0.05 86 1010.1
20260507044221 14 45 4.8 6.4 0.05 0.51 0.05 83 1010.1
20260507043721 14 153 3.2 9.7 0.00 0.46 0.00 82 1009.7
20260507043224 14 104 0.0 9.7 0.00 0.46 0.00 82 1010.0
20260507042722 15 97 8.0 17.7 0.00 0.46 0.00 81 1009.7
20260507042221 15 43 0.0 17.7 0.00 0.46 0.00 80 1009.9
20260507041721 15 85 11.3 16.1 0.00 0.46 0.00 79 1009.8
20260507041221 15 97 9.7 22.5 0.00 0.46 0.00 77 1009.9
20260507040721 15 118 9.7 16.1 0.00 0.46 0.00 79 1009.7
20260507040221 15 94 8.0 12.9 0.00 0.46 0.00 81 1009.4
20260507035721 15 104 0.0 4.8 0.00 0.46 0.00 81 1009.4
20260507035221 16 50 0.0 6.4 0.00 0.46 0.00 80 1009.4
20260507034221 16 85 9.7 12.9 0.00 0.46 0.46 80 1009.4
20260507033722 16 102 6.4 11.3 0.00 0.46 0.46 80 1009.7
20260507033221 16 80 4.8 12.9 0.00 0.46 0.46 79 1009.6
20260507032721 16 15 9.7 16.1 0.00 0.46 0.46 79 1009.6
20260507032221 16 354 0.0 14.5 0.00 0.46 0.46 82 1009.3
20260507031722 16 81 0.0 11.3 0.00 0.46 0.46 83 1009.3
20260507031221 16 80 1.6 11.3 0.00 0.46 0.46 83 1009.2
20260507030721 16 71 6.4 11.3 0.00 0.46 0.46 82 1009.0
20260507030221 16 54 0.0 9.7 0.00 0.46 0.46 82 1009.0
20260507025721 17 2 0.0 12.9 0.00 0.46 0.46 82 1009.1
20260507025221 17 71 8.0 16.1 0.00 0.46 0.46 82 1009.1
20260507024722 17 132 8.0 16.1 0.00 0.46 0.46 82 1009.0
20260507024223 17 46 6.4 14.5 0.00 0.46 0.46 82 1008.9
20260507023722 17 99 3.2 11.3 0.00 0.46 0.46 83 1008.9
20260507023221 17 78 3.2 6.4 0.00 0.46 0.46 84 1008.7
20260507022723 17 92 3.2 9.7 0.00 0.46 0.46 84 1008.9
20260507022223 17 102 6.4 8.0 0.00 0.46 0.46 84 1008.9
20260507021721 18 94 6.4 6.4 0.00 0.46 0.46 85 1009.0
20260507021223 18 82 0.0 6.4 0.00 0.46 0.46 86 1009.0
20260507020721 18 113 4.8 6.4 0.00 0.46 0.46 86 1008.5
20260507020222 18 15 0.0 4.8 0.00 0.46 0.46 85 1008.7
20260507015721 18 21 0.0 6.4 0.00 0.46 0.46 84 1008.7
20260507015222 18 32 0.0 6.4 0.00 0.46 0.46 84 1008.8
20260507014722 18 330 1.6 6.4 0.00 0.46 0.46 83 1009.1
20260507014221 18 9 1.6 9.7 0.00 0.46 0.46 83 1009.0
20260507013721 18 25 0.0 4.8 0.00 0.46 0.46 82 1009.1
20260507013221 18 25 3.2 4.8 0.00 0.46 0.46 82 1009.0
20260507012723 18 12 3.2 4.8 0.00 0.46 0.46 81 1008.9
20260507012221 18 344 0.0 9.7 0.00 0.46 0.46 81 1009.1
20260507011722 18 358 3.2 8.0 0.00 0.46 0.46 80 1009.1
20260507010724 19 312 0.0 0.0 0.00 0.46 0.46 80 1008.8
20260507010224 19 312 0.0 0.0 0.00 0.46 0.46 80 1008.7
20260507005727 19 312 0.0 0.0 0.00 0.46 0.46 79 1008.7
20260507005223 19 312 0.0 3.2 0.00 0.46 0.46 79 1008.6
20260507004722 19 319 0.0 3.2 0.00 0.46 0.46 79 1008.7
20260507004221 19 330 0.0 4.8 0.00 0.46 0.46 79 1008.5
20260507003721 19 305 0.0 0.0 0.00 0.46 0.46 79 1008.2
20260507003223 19 305 0.0 3.2 0.00 0.46 0.46 79 1008.3
20260507002721 19 327 0.0 3.2 0.00 0.46 0.46 79 1008.4
20260507002222 19 293 0.0 1.6 0.00 0.46 0.46 78 1008.1
20260507001723 20 295 1.6 3.2 0.00 0.46 0.46 78 1008.1
20260507001223 19 320 3.2 3.2 0.00 0.46 0.46 78 1008.2
20260507000721 20 282 0.0 0.0 0.00 0.46 0.46 78 1008.2
20260507000221 20 282 0.0 0.0 0.00 0.46 0.46 77 1008.2
20260506235721 20 282 0.0 0.0 0.00 0.46 0.46 77 1008.0
20260506235222 20 282 0.0 0.0 0.00 0.46 0.46 77 1007.7
20260506234722 20 282 0.0 0.0 0.00 0.46 0.46 76 1007.7
20260506234224 20 282 0.0 0.0 0.00 0.46 0.46 76 1007.9
20260506233721 20 282 0.0 0.0 0.00 0.46 0.46 76 1007.7
20260506233222 20 282 0.0 0.0 0.00 0.46 0.46 75 1007.6
20260506232721 20 282 0.0 0.0 0.00 0.46 0.46 75 1007.5
20260506232221 20 282 0.0 0.0 0.00 0.46 0.46 75 1007.5
20260506231721 20 282 0.0 1.6 0.00 0.46 0.46 75 1007.6
20260506231222 20 320 0.0 1.6 0.00 0.46 0.46 75 1007.6
20260506230721 20 309 0.0 0.0 0.00 0.46 0.46 75 1007.5
20260506230222 20 309 0.0 0.0 0.00 0.46 0.46 75 1007.5
20260506225721 20 309 0.0 0.0 0.00 0.46 0.46 75 1007.6
20260506225223 20 309 0.0 0.0 0.00 0.46 0.46 75 1007.6
20260506224222 20 309 0.0 0.0 0.00 0.46 0.46 75 1007.6
20260506223721 20 309 0.0 0.0 0.00 0.46 0.46 74 1007.6
20260506223221 20 309 0.0 0.0 0.00 0.46 0.46 75 1007.7
20260506222721 20 309 0.0 0.0 0.00 0.46 0.46 74 1007.6
20260506222221 20 309 0.0 0.0 0.00 0.46 0.46 74 1007.5
20260506221725 20 309 0.0 0.0 0.00 0.46 0.46 74 1007.5
20260506221223 20 309 0.0 0.0 0.00 0.46 0.46 74 1007.5
20260506220722 20 309 0.0 0.0 0.00 0.46 0.46 75 1007.4
20260506220222 20 309 0.0 1.6 0.00 0.46 0.46 74 1007.5
20260506215722 20 320 0.0 0.0 0.00 0.46 0.46 74 1007.6
20260506215222 20 320 0.0 1.6 0.00 0.46 0.46 74 1007.6
20260506214725 20 302 0.0 1.6 0.00 0.46 0.46 74 1007.4
20260506214226 20 310 1.6 1.6 0.00 0.46 0.46 74 1007.4
20260506213726 20 284 0.0 0.0 0.00 0.46 0.46 75 1007.4
20260506213232 20 284 0.0 3.2 0.00 0.46 0.46 74 1007.3
20260506212722 20 303 3.2 4.8 0.00 0.46 0.46 74 1007.3
20260506212226 20 295 0.0 0.0 0.00 0.46 0.46 75 1007.4
20260506211722 20 295 0.0 3.2 0.00 0.46 0.46 75 1007.2
20260506211222 20 299 0.0 0.0 0.00 0.46 0.46 75 1007.2
20260506210222 20 299 0.0 0.0 0.00 0.46 0.46 74 1007.1
20260506205722 20 299 0.0 0.0 0.00 0.46 0.46 74 1007.0
20260506205226 20 299 0.0 0.0 0.00 0.46 0.46 74 1007.1
20260506204722 20 299 0.0 0.0 0.00 0.46 0.46 74 1006.9
20260506204221 20 299 0.0 0.0 0.00 0.46 0.46 74 1007.2
20260506203722 20 299 0.0 0.0 0.00 0.46 0.46 74 1007.3
20260506203222 20 299 0.0 6.4 0.00 0.46 0.46 72 1007.1
20260506202722 20 313 3.2 9.7 0.00 0.46 0.46 72 1007.1
20260506202222 20 310 9.7 12.9 0.00 0.46 0.46 72 1007.1
20260506201722 20 327 4.8 6.4 0.00 0.46 0.46 73 1007.0
20260506201222 20 302 0.0 9.7 0.00 0.46 0.46 73 1007.0
20260506200722 20 299 4.8 8.0 0.00 0.46 0.46 74 1007.0
20260506200223 20 319 4.8 6.4 0.00 0.46 0.46 74 1007.1
20260506195722 20 322 3.2 4.8 0.00 0.46 0.46 74 1007.1
20260506195222 20 261 0.0 11.3 0.00 0.46 0.46 73 1007.1
20260506194723 20 320 8.0 9.7 0.00 0.46 0.46 72 1007.1
20260506194222 20 317 6.4 6.4 0.00 0.46 0.46 74 1007.1
20260506193722 20 295 1.6 14.5 0.00 0.46 0.46 74 1007.0
20260506193224 20 333 3.2 14.5 0.00 0.48 0.46 75 1007.2
20260506192722 20 295 6.4 11.3 0.00 0.48 0.46 75 1007.3
20260506192222 20 322 4.8 8.0 0.00 0.48 0.46 76 1007.2
20260506191723 20 306 6.4 14.5 0.00 0.48 0.46 75 1007.4
20260506191222 19 310 6.4 16.1 0.00 0.48 0.46 76 1007.4
20260506190722 19 289 1.6 9.7 0.00 0.48 0.46 78 1007.6
20260506190223 19 296 4.8 9.7 0.00 0.48 0.46 78 1007.6
20260506185722 19 313 1.6 11.3 0.00 0.48 0.46 79 1007.9
20260506185223 18 225 0.0 9.7 0.00 0.48 0.46 79 1007.9
20260506184724 18 329 1.6 9.7 0.00 0.48 0.46 80 1007.9
20260506184222 18 354 3.2 17.7 0.00 0.48 0.46 80 1007.7
20260506183726 18 258 4.8 16.1 0.00 0.48 0.46 81 1007.9
20260506183222 18 302 8.0 9.7 0.00 0.48 0.46 81 1007.9
20260506182722 18 317 3.2 11.3 0.00 0.48 0.46 81 1007.9
20260506182222 18 291 8.0 9.7 0.00 0.48 0.46 83 1007.7
20260506181722 18 289 3.2 16.1 0.00 0.48 0.46 83 1008.0
20260506181222 17 306 16.1 16.1 0.00 0.48 0.46 83 1008.0
20260506180722 17 275 6.4 12.9 0.00 0.48 0.46 84 1008.1
20260506180224 17 317 11.3 17.7 0.00 0.48 0.46 86 1008.2
20260506175722 17 322 4.8 16.1 0.00 0.48 0.46 87 1008.2
20260506175223 17 317 4.8 14.5 0.00 0.48 0.46 89 1008.1
20260506174724 17 306 4.8 9.7 0.00 0.48 0.46 90 1008.1
20260506174224 17 299 6.4 9.7 0.00 0.48 0.46 92 1008.2
20260506173722 16 292 6.4 16.1 0.00 0.48 0.46 92 1008.2
20260506173222 16 289 6.4 9.7 0.00 0.48 0.46 93 1008.2
20260506172722 16 278 6.4 11.3 0.00 0.48 0.46 95 1008.2
20260506172222 16 317 4.8 9.7 0.00 0.48 0.46 95 1008.3
20260506171723 16 282 0.0 9.7 0.00 0.48 0.46 95 1008.2
20260506171222 16 317 4.8 9.7 0.00 0.48 0.46 95 1008.2
20260506165722 16 295 3.2 6.4 0.00 0.48 0.46 96 1008.4
20260506165222 16 343 6.4 14.5 0.00 0.48 0.46 96 1008.4
20260506164724 16 8 3.2 11.3 0.00 0.48 0.46 96 1008.6
20260506164224 16 288 3.2 8.0 0.00 0.48 0.46 96 1008.5
20260506163722 16 305 3.2 11.3 0.00 0.48 0.46 96 1008.4
20260506163231 15 320 8.0 11.3 0.03 0.51 0.46 96 1008.4
20260506162722 16 268 4.8 20.9 0.03 0.51 0.46 96 1008.5
20260506162222 16 305 9.7 11.3 0.03 0.51 0.46 96 1008.7
20260506161722 16 317 8.0 17.7 0.03 0.51 0.46 97 1008.6
20260506161222 16 303 8.0 9.7 0.03 0.51 0.46 96 1008.6
20260506160723 16 307 9.7 11.3 0.08 0.51 0.46 96 1008.7
20260506160223 16 291 3.2 8.0 0.08 0.51 0.46 96 1008.7
20260506155722 16 275 4.8 8.0 0.10 0.51 0.46 96 1008.6
20260506155224 16 288 1.6 14.5 0.13 0.51 0.46 96 1008.8
20260506154723 16 303 3.2 4.8 0.13 0.51 0.46 96 1008.7
20260506154222 16 299 4.8 6.4 0.15 0.51 0.46 96 1008.5
20260506153722 16 240 1.6 6.4 0.15 0.51 0.46 96 1008.8
20260506153227 16 293 4.8 6.4 0.15 0.48 0.43 96 1008.8
20260506152722 16 281 3.2 8.0 0.15 0.48 0.43 96 1009.0
20260506152222 16 285 6.4 8.0 0.20 0.48 0.43 96 1009.2
20260506151722 16 267 3.2 6.4 0.20 0.48 0.43 95 1009.3
20260506151226 16 291 1.6 8.0 0.18 0.46 0.41 95 1009.4
20260506150722 16 57 1.6 9.7 0.18 0.43 0.38 95 1009.4
20260506150230 16 265 0.0 4.8 0.18 0.43 0.38 95 1009.4
20260506145722 16 299 3.2 8.0 0.18 0.41 0.36 95 1009.4
20260506145222 16 295 0.0 6.4 0.20 0.38 0.33 95 1009.5
20260506144725 16 310 4.8 9.7 0.20 0.38 0.33 95 1009.5
20260506144222 16 272 1.6 8.0 0.20 0.36 0.30 95 1009.4
20260506143722 16 296 0.0 8.0 0.23 0.36 0.30 95 1009.3
20260506143224 16 315 3.2 8.0 0.23 0.33 0.28 94 1009.1
20260506142722 16 270 1.6 6.4 0.23 0.33 0.28 94 1009.1
20260506142222 16 300 6.4 6.4 0.18 0.28 0.23 93 1009.2
20260506141722 16 279 1.6 4.8 0.18 0.28 0.23 93 1009.2
20260506141222 16 275 3.2 9.7 0.20 0.28 0.23 92 1009.3
20260506140722 16 282 0.0 8.0 0.18 0.25 0.20 91 1009.4
20260506140222 16 310 0.0 8.0 0.18 0.25 0.20 90 1009.5
20260506135722 16 255 3.2 9.7 0.15 0.23 0.18 89 1009.7
20260506135226 16 317 4.8 8.0 0.10 0.18 0.13 88 1009.8
20260506134725 16 281 3.2 9.7 0.10 0.18 0.13 87 1009.7
20260506134222 16 281 0.0 6.4 0.08 0.15 0.10 85 1009.6
20260506133722 17 300 4.8 8.0 0.05 0.13 0.08 85 1009.6
20260506132722 17 244 1.6 6.4 0.03 0.10 0.05 83 1009.6
20260506132222 17 270 0.0 6.4 0.03 0.10 0.05 82 1009.6
20260506131722 17 288 1.6 8.0 0.03 0.10 0.05 80 1009.6
20260506131222 17 296 3.2 8.0 0.00 0.08 0.03 79 1009.4
20260506130722 17 258 0.0 0.0 0.00 0.08 0.03 79 1009.2
20260506130223 17 258 0.0 0.0 0.00 0.08 0.03 77 1009.2
20260506125722 17 258 0.0 4.8 0.00 0.08 0.03 77 1009.2
20260506125222 17 277 3.2 6.4 0.00 0.08 0.03 76 1009.2
20260506124724 17 275 1.6 8.0 0.00 0.08 0.03 77 1009.2
20260506124224 17 323 3.2 8.0 0.00 0.08 0.03 77 1009.2
20260506123722 17 298 1.6 4.8 0.00 0.08 0.03 76 1009.4
20260506123223 17 267 0.0 4.8 0.00 0.08 0.03 75 1009.6
20260506122722 18 282 3.2 14.5 0.00 0.08 0.03 74 1009.6
20260506122222 18 274 1.6 4.8 0.00 0.08 0.03 74 1009.7
20260506121723 18 319 4.8 6.4 0.00 0.08 0.03 73 1009.7
20260506121222 18 310 3.2 6.4 0.00 0.08 0.03 72 1009.7
20260506120722 18 296 4.8 11.3 0.00 0.08 0.03 70 1009.7
20260506120225 18 254 3.2 8.0 0.00 0.08 0.03 70 1009.7
20260506115726 18 291 3.2 12.9 0.03 0.08 0.03 70 1009.7
20260506115222 18 285 1.6 11.3 0.03 0.08 0.03 70 1009.6
20260506114724 18 313 4.8 8.0 0.03 0.08 0.03 70 1009.4
20260506114222 18 279 4.8 9.7 0.03 0.08 0.03 71 1009.1
20260506113726 18 312 4.8 8.0 0.03 0.08 0.03 70 1009.3
20260506113223 18 310 3.2 8.0 0.03 0.08 0.03 71 1009.3
20260506112726 18 264 3.2 8.0 0.03 0.08 0.03 71 1009.2
20260506112223 18 293 6.4 8.0 0.03 0.08 0.03 71 1009.2
20260506111724 18 292 1.6 4.8 0.03 0.08 0.03 71 1009.0
20260506111223 18 337 3.2 8.0 0.03 0.08 0.03 71 1009.2
20260506110722 18 289 4.8 8.0 0.03 0.08 0.03 71 1009.0
20260506110222 18 275 1.6 4.8 0.03 0.08 0.03 71 1008.9
20260506105725 18 295 4.8 8.0 0.00 0.05 0.00 71 1008.9
20260506105223 18 309 3.2 8.0 0.00 0.05 0.00 71 1008.9
20260506104722 17 274 4.8 8.0 0.00 0.05 0.00 72 1008.8
20260506104224 17 272 3.2 4.8 0.00 0.05 0.00 72 1008.8
20260506103722 17 278 3.2 8.0 0.00 0.05 0.00 73 1008.8
20260506103222 17 272 3.2 9.7 0.00 0.05 0.00 73 1008.8
20260506102726 17 274 1.6 4.8 0.00 0.05 0.00 73 1008.8
20260506102222 17 258 0.0 3.2 0.00 0.05 0.00 72 1008.8
20260506101723 17 246 1.6 6.4 0.00 0.05 0.00 72 1008.8
20260506101223 17 275 0.0 6.4 0.00 0.05 0.00 72 1008.8
20260506100723 17 296 4.8 6.4 0.00 0.05 0.00 72 1008.8
20260506095723 18 286 1.6 4.8 0.00 0.05 0.00 71 1008.8
20260506095223 18 303 4.8 6.4 0.00 0.05 0.00 71 1008.8
20260506094723 17 293 3.2 6.4 0.00 0.05 0.00 71 1008.8
20260506094223 17 286 3.2 4.8 0.00 0.05 0.00 70 1008.7
20260506093723 18 281 3.2 4.8 0.00 0.05 0.00 70 1008.8
20260506093224 18 296 0.0 6.4 0.00 0.05 0.00 69 1008.8
20260506092723 18 302 3.2 8.0 0.00 0.05 0.00 69 1008.8
20260506092223 18 260 1.6 4.8 0.00 0.05 0.00 69 1008.8
20260506091724 18 309 1.6 6.4 0.00 0.05 0.00 68 1008.7
20260506091223 18 285 4.8 8.0 0.00 0.05 0.00 68 1008.8
20260506090723 18 268 4.8 8.0 0.00 0.05 0.00 67 1008.8
20260506090222 18 272 0.0 9.7 0.00 0.05 0.00 66 1009.0
20260506085723 18 292 6.4 9.7 0.00 0.05 0.00 66 1008.9
20260506085223 18 293 4.8 6.4 0.00 0.05 0.00 67 1008.9
20260506084724 18 289 4.8 4.8 0.00 0.05 0.00 66 1009.0
20260506084223 18 292 3.2 6.4 0.00 0.05 0.00 66 1009.0
20260506083723 18 284 0.0 4.8 0.00 0.05 0.00 66 1009.0
20260506083223 18 289 1.6 6.4 0.00 0.05 0.00 65 1009.0
20260506082722 19 292 4.8 8.0 0.00 0.05 0.00 65 1008.9
20260506082223 19 281 3.2 6.4 0.00 0.05 0.00 65 1008.9
20260506081725 19 226 0.0 6.4 0.00 0.05 0.00 64 1008.8
20260506081223 19 274 3.2 4.8 0.00 0.05 0.00 64 1008.7
20260506080723 19 278 0.0 4.8 0.00 0.05 0.00 63 1008.9
20260506080223 20 275 1.6 6.4 0.00 0.05 0.00 62 1008.9
20260506073223 20 295 3.2 8.0 0.00 0.05 0.00 57 1008.9
20260506072723 20 282 3.2 14.5 0.00 0.05 0.00 57 1009.1
20260506072223 20 310 4.8 9.7 0.00 0.05 0.00 57 1009.1
20260506071723 20 284 1.6 12.9 0.00 0.05 0.00 57 1009.1
20260506071222 20 305 6.4 8.0 0.00 0.05 0.00 57 1009.1